Showing default

GALILEO 15 (267), 41859

Orbit data source: Space-Track

GALILEO 15 (267), 41859 is a payload satellite owned by GNSS Agency (ESA) that was launched on Thu, 17 Nov 2016 UTC via an ARIANE 5ES launch vehicle from the French Guiana (FRGUI). Payload-class satellites include a variety of spacecraft equipped with specific instruments for various scientific and technological missions. These include communications satellites like Starlink; space stations such as the ISS; scientific satellites like the Hubble; Earth observation satellites from companies like Planet Labs, Umbra, and HawkEye 360; GPS; miniature CubeSats for education and research; and military/defense satellites.

Loading next visibility...
Identifier
41859, 2016-069A
Orbit
Active
Country
Flag of ESAESA
Related business
Manufacturer
OHB
Mission
Operational Civil Navigation
Bus & Motor
GALILEOSAT, AOCS
Mass
738 kg wet, 700 kg dry
Launch date (UTC)
2016-11-17 (10 years ago)
Launch vehicle
ARIANE 5ES
Launch site
French Guiana (FRGUI)
Object type
Payload
Rocket body
Debris
Shape & HBR
Box + 2 Pan, 7.3 m
Radar Cross Section
9.223 m², Large (>1 m²)

Expand to show TLE details & history
Last TLE update: 3 days ago

TLE from 3 days ago
0 GALILEO 15 (267)
1 41859U 16069A   26170.67835764 -.00000013  00000-0  00000-0 0  9996
2 41859  55.5002 101.0173 0005218 330.9828  28.9678  1.70473648 59440
Epoch: 2026-06-19T16:16Z
TLE epoch observation values (Epoch: 2026-06-19T16:16:50.100Z)
Latitude
0.00001°
Longitude
-51.09595°
Altitude
23,208.977 km
Speed
3.671 km/s
True Right ascension
06h 44m 04s
True Declination
0° 00' 00"
Sunlit
Object was in daylight at epoch
Visualization orbit readout
Latitude
Unknown
Longitude
Unknown
Altitude
Unknown
Speed
Unknown
Apparent Right ascension
Unknown
Apparent Declination
Unknown
Sunlit
N/A
Visualization observer readout
Local Sidereal Time
21:40:33
Azimuth
Unknown
Elevation
Unknown
Doppler factor
Unknown
Orbital elements
Apogee altitude
23,237.659 km
Perigee altitude
23,206.769 km
Semi-major axis
29,600.351 km
Eccentricity
0.00052
Inclination
55.5002°
RAAN
101.0173°
Arg. of periapsis
330.9828°
True anomaly
28.99678°
Mean anomaly
28.9678°
Eccentric anomaly
28.98229°
Mean motion
0.42618 °/min
Orbital period
844.7 mins
BSTAR
0
Loading maneuver chart data...
Computing Atmospheric mass density...
Loading historical data...
Loading historical data...
Loading historical data...
Loading historical data...
Loading historical data...
Loading historical data...
Loading historical data...
Other satellites on launch #69 in the year 2016 (2016-11-17 UTC)

Documentation

Showing up to 5 results
|